Polytech Univers-5

operational
NORAD ID: 61745 Int'l Des: 2024-199 Owner: SPBPU Country: RU
LEOCIRCULARRETROGRADESSO

About Polytech Univers-5

Description loading...

Live Position

Loading 3D Globe...

Upcoming Passes

Altitude History

Altitude vs Time

uPlot chart will show altitude changes over time

Two-Line Element Set

1 61745U 24199L 26062.12519929 .00048418 00000-0 81458-3 0 9996
2 61745 97.3149 297.3728 0005342 314.0525 46.0287 15.51574638121185
Epoch: Mar 3, 2026 • Age: 15 hours

Current Status

Altitude 425.4 km
Velocity 7.65 km/s
Sub-Earth Point -33.83°S, 90.19°E
Launch Date Nov 4, 2024
Age 1.3 years
Type other

Technical Details

Classification Payload
Mass 5.07 kg
Dry Mass 5.07 kg
Total Mass 5.07 kg
Length 0.30 m
Diameter 0.10 m
Span 0.30 m
Shape Box
Manufacturer STTS
Bus Type Cubesat 3U
Phase Status In Orbit
Owner/State SPBPU/RU

Large Constellations

Loading constellations...